CW8386 Weather Reports


Display with metric or nautical units.
time (UTC)temp
F
wind
direction
speed
MPH
gust
MPH
rain 1hr
in
rain 24hr
in
rain mn
in
humidity
%
barometer
mb
20260508130548 42 360 0.0 0.0 0.01 0.11 0.07 84 1016.9
20260508130028 42 360 0.0 0.0 0.01 0.11 0.07 84 1016.8
20260508125530 42 360 0.0 0.0 0.01 0.11 0.07 84 1016.8
20260508124530 42 360 0.0 0.0 0.01 0.11 0.07 84 1016.7
20260508124115 41 360 0.0 0.0 0.01 0.11 0.07 84 1016.7
20260508123553 41 360 0.0 0.0 0.01 0.11 0.07 84 1016.7
20260508123034 41 360 0.0 0.0 0.01 0.11 0.07 84 1016.6
20260508122556 41 360 0.0 0.0 0.00 0.10 0.06 84 1016.6
20260508122036 41 360 0.0 0.0 0.00 0.10 0.06 84 1016.6
20260508121537 41 360 0.0 4.0 0.00 0.10 0.06 83 1016.5
20260508121100 40 360 2.0 4.0 0.00 0.10 0.06 83 1016.5
20260508120558 40 360 4.0 4.0 0.00 0.10 0.06 83 1016.5
20260508120119 41 360 1.0 5.0 0.00 0.10 0.06 84 1016.5
20260508115619 41 360 3.0 5.0 0.00 0.10 0.06 84 1016.4
20260508115038 40 360 4.0 5.0 0.00 0.10 0.06 83 1016.5
20260508114620 40 360 0.0 5.0 0.00 0.10 0.06 83 1016.4
20260508114121 41 360 4.0 5.0 0.01 0.10 0.06 83 1016.3
20260508113559 41 360 0.0 0.0 0.01 0.10 0.06 83 1016.3
20260508113039 40 360 0.0 0.0 0.01 0.10 0.06 83 1016.3
20260508112600 40 360 0.0 0.0 0.01 0.10 0.06 83 1016.3
20260508112121 40 360 0.0 0.0 0.01 0.10 0.06 83 1016.3
20260508111542 40 360 0.0 0.0 0.01 0.10 0.06 83 1016.2
20260508111045 40 360 0.0 0.0 0.01 0.10 0.06 83 1016.2
20260508110626 40 360 0.0 0.0 0.01 0.10 0.06 83 1016.3
20260508110024 40 360 0.0 0.0 0.01 0.10 0.06 83 1016.3
20260508105546 41 360 0.0 0.0 0.01 0.10 0.06 83 1016.3
20260508104525 41 360 0.0 6.0 0.01 0.10 0.06 83 1016.3
20260508104028 41 360 3.0 6.0 0.00 0.09 0.05 83 1016.3
20260508103528 41 360 5.0 6.0 0.00 0.09 0.05 83 1016.2
20260508103028 41 360 4.0 6.0 0.00 0.09 0.05 83 1016.1
20260508102549 41 360 4.0 6.0 0.00 0.09 0.05 83 1016.2
20260508102029 41 360 0.0 5.0 0.00 0.09 0.05 83 1016.2
20260508101531 41 360 0.0 4.0 0.00 0.09 0.05 83 1016.2
20260508101054 42 360 3.0 6.0 0.01 0.09 0.05 83 1016.2
20260508100613 42 360 5.0 6.0 0.01 0.09 0.05 83 1016.2
20260508095548 42 360 0.0 0.0 0.01 0.09 0.05 83 1016.2
20260508095028 42 360 0.0 0.0 0.01 0.09 0.05 83 1016.2
20260508094550 42 360 0.0 0.0 0.01 0.09 0.05 83 1016.1
20260508094031 42 360 0.0 6.0 0.01 0.09 0.05 83 1016.1
20260508093531 42 360 3.0 6.0 0.01 0.09 0.05 83 1016.1
20260508092531 43 360 0.0 1.0 0.01 0.09 0.05 82 1016.1
20260508092114 43 360 0.0 4.0 0.01 0.09 0.05 82 1016.0
20260508091613 43 360 3.0 4.0 0.01 0.09 0.05 82 1016.1
20260508091033 44 360 1.0 4.0 0.01 0.08 0.04 82 1016.0
20260508090555 44 360 3.0 4.0 0.01 0.08 0.04 82 1016.9
20260508090056 45 360 0.0 3.0 0.01 0.08 0.04 82 1016.9
20260508085536 45 360 0.0 7.0 0.01 0.08 0.04 82 1016.9
20260508085119 45 360 4.0 7.0 0.01 0.08 0.04 82 1016.9
20260508084558 46 360 0.0 4.0 0.01 0.08 0.04 82 1016.9
20260508084039 47 360 0.0 0.0 0.01 0.08 0.04 82 1017.0
20260508083621 47 360 0.0 0.0 0.01 0.08 0.04 82 1017.0
20260508083040 47 360 0.0 0.0 0.01 0.08 0.04 82 1017.0
20260508082601 47 360 0.0 0.0 0.01 0.08 0.04 82 1017.1
20260508082123 48 360 0.0 0.0 0.02 0.08 0.04 82 1017.0
20260508081542 48 360 0.0 0.0 0.02 0.08 0.04 82 1017.1
20260508081105 48 360 0.0 0.0 0.01 0.07 0.03 82 1017.1
20260508080543 48 360 0.0 0.0 0.01 0.07 0.03 82 1017.2
20260508080045 48 360 0.0 0.0 0.01 0.07 0.03 82 1017.2
20260508075605 48 360 0.0 9.0 0.01 0.07 0.03 82 1017.2
20260508075024 48 360 3.0 9.0 0.01 0.07 0.03 82 1017.1
20260508074547 48 360 4.0 9.0 0.02 0.07 0.03 82 1017.2
20260508074109 48 360 2.0 10.0 0.02 0.07 0.03 82 1017.1
20260508073526 48 360 6.0 10.0 0.02 0.07 0.03 82 1016.9
20260508073108 48 360 5.0 9.0 0.02 0.07 0.03 82 1017.2
20260508072527 48 360 0.0 0.0 0.02 0.07 0.03 82 1017.8
20260508072029 48 360 0.0 0.0 0.01 0.06 0.02 82 1017.9
20260508071551 48 360 0.0 0.0 0.01 0.06 0.02 82 1017.8
20260508071053 48 360 0.0 0.0 0.02 0.06 0.02 82 1017.8
20260508070536 48 360 0.0 1.0 0.02 0.06 0.02 82 1018.0
20260508070038 48 360 0.0 3.0 0.02 0.06 0.02 82 1018.0
20260508065540 48 360 1.0 3.0 0.02 0.06 0.02 82 1017.9
20260508065122 48 360 0.0 2.0 0.02 0.06 0.02 82 1017.9
20260508064541 48 360 0.0 0.0 0.02 0.05 0.01 82 1017.8
20260508064104 48 360 0.0 0.0 0.02 0.05 0.01 82 1017.6
20260508063543 48 360 0.0 0.0 0.02 0.05 0.01 82 1017.6
20260508063044 48 360 0.0 0.0 0.02 0.05 0.01 82 1017.5
20260508062524 48 360 0.0 0.0 0.02 0.05 0.01 82 1017.4
20260508062026 48 360 0.0 1.0 0.03 0.05 0.01 82 1017.4
20260508061527 48 360 0.0 4.0 0.03 0.05 0.01 82 1017.3
20260508061049 49 360 0.0 4.0 0.02 0.04 0.00 81 1017.4
20260508060527 48 360 0.0 5.0 0.02 0.04 0.04 82 1017.6
20260508060050 48 360 2.0 7.0 0.02 0.04 0.04 81 1017.6
20260508055551 48 360 4.0 10.0 0.02 0.04 0.04 81 1018.0
20260508055031 49 360 2.0 12.0 0.02 0.04 0.04 82 1017.9
20260508054613 49 360 6.0 12.0 0.01 0.03 0.03 82 1017.9
20260508054114 49 360 6.0 12.0 0.01 0.03 0.03 81 1018.2
20260508053613 49 360 3.0 13.0 0.01 0.03 0.03 81 1018.1
20260508053052 49 360 7.0 16.0 0.01 0.03 0.03 81 1018.1
20260508052553 49 360 9.0 16.0 0.02 0.03 0.03 81 1018.3
20260508052033 49 360 8.0 14.0 0.01 0.02 0.02 81 1018.3
20260508051553 50 360 8.0 14.0 0.01 0.02 0.02 80 1018.2
20260508051034 50 360 4.0 9.0 0.01 0.02 0.02 80 1018.0
20260508050535 50 360 5.0 9.0 0.01 0.02 0.02 80 1017.9
20260508050037 49 360 5.0 7.0 0.01 0.02 0.02 80 1017.5
20260508045559 49 360 0.0 4.0 0.01 0.02 0.02 80 1017.2
20260508045100 49 360 0.0 5.0 0.01 0.02 0.02 80 1016.8
20260508044540 49 360 1.0 5.0 0.01 0.02 0.02 80 1016.7
20260508044025 50 360 0.0 0.0 0.01 0.02 0.02 79 1016.8
20260508043546 50 360 0.0 0.0 0.01 0.02 0.02 79 1017.2
20260508043047 50 360 0.0 0.0 0.02 0.02 0.02 78 1017.1
20260508042526 50 360 0.0 0.0 0.01 0.01 0.01 78 1017.2
20260508042028 50 360 0.0 3.0 0.01 0.01 0.01 77 1017.2
20260508041529 50 360 0.0 3.0 0.01 0.01 0.01 76 1017.1
20260508041031 51 360 0.0 2.0 0.01 0.01 0.01 75 1017.1
20260508040532 51 360 0.0 2.0 0.01 0.01 0.01 75 1017.0
20260508040035 51 360 0.0 2.0 0.01 0.01 0.01 74 1017.0
20260508035557 51 360 0.0 0.0 0.01 0.01 0.01 74 1017.0
20260508035038 51 360 0.0 7.0 0.01 0.01 0.01 74 1016.9
20260508034539 51 360 2.0 7.0 0.01 0.01 0.01 74 1016.7
20260508034041 51 360 2.0 7.0 0.01 0.01 0.01 74 1016.7
20260508033601 51 360 3.0 11.0 0.01 0.01 0.01 74 1016.6
20260508033043 52 360 8.0 11.0 0.01 0.01 0.01 72 1015.8
20260508032624 52 360 3.0 7.0 0.00 0.00 0.00 71 1016.5
20260508032043 52 360 2.0 11.0 0.00 0.00 0.00 71 1016.4
20260508031605 52 360 5.0 11.0 0.00 0.00 0.00 71 1016.3
20260508031108 52 360 2.0 9.0 0.00 0.00 0.00 71 1016.2
20260508030606 52 360 6.0 10.0 0.00 0.00 0.00 71 1016.2
20260508030026 53 360 6.0 12.0 0.00 0.00 0.00 70 1016.1
20260508025527 53 360 6.0 16.0 0.00 0.00 0.00 70 1015.8
20260508025032 54 360 11.0 20.0 0.00 0.00 0.00 68 1015.6
20260508024533 55 360 15.0 20.0 0.00 0.00 0.00 66 1015.4
20260508024035 56 360 1.0 11.0 0.00 0.00 0.00 65 1015.1
20260508023556 56 360 6.0 12.0 0.00 0.00 0.00 62 1014.7
20260508023117 57 360 7.0 12.0 0.00 0.00 0.00 61 1014.7
20260508022616 57 360 2.0 8.0 0.00 0.00 0.00 63 1014.4
20260508022112 57 360 0.0 8.0 0.00 0.00 0.00 64 1014.9
20260508021552 57 360 3.0 5.0 0.00 0.00 0.00 63 1014.9
20260508021114 57 360 1.0 5.0 0.00 0.00 0.00 63 1014.7
20260508020532 58 360 0.0 7.0 0.00 0.00 0.00 62 1014.5
20260508020054 58 360 4.0 9.0 0.00 0.00 0.00 60 1014.2
20260508015615 58 360 4.0 9.0 0.00 0.00 0.00 59 1014.1
20260508015033 58 360 4.0 10.0 0.00 0.00 0.00 59 1013.9
20260508014539 58 360 6.0 10.0 0.00 0.00 0.00 59 1013.7
20260508014040 58 360 4.0 6.0 0.00 0.00 0.00 57 1013.5
20260508013601 58 360 3.0 5.0 0.00 0.00 0.00 56 1013.5
20260508013102 59 360 3.0 5.0 0.00 0.00 0.00 56 1013.5
20260508012602 59 360 0.0 7.0 0.00 0.00 0.00 55 1013.4
20260508011541 60 360 4.0 9.0 0.00 0.00 0.00 54 1013.3
20260508011105 60 360 3.0 7.0 0.00 0.00 0.00 53 1013.4
20260508010543 61 360 0.0 6.0 0.00 0.00 0.00 54 1013.4
20260508010044 61 360 1.0 6.0 0.00 0.00 0.00 54 1013.3
20260508005546 60 360 0.0 0.0 0.00 0.00 0.00 53 1013.2
20260508005027 60 360 0.0 0.0 0.00 0.00 0.00 53 1013.3
20260508004548 61 360 0.0 1.0 0.00 0.00 0.00 52 1013.3
20260508004029 60 360 0.0 1.0 0.00 0.00 0.00 51 1013.4
20260508003550 60 360 0.0 0.0 0.00 0.00 0.00 54 1013.3
20260508003051 59 360 0.0 4.0 0.00 0.00 0.00 52 1013.3
20260508002531 59 360 0.0 10.0 0.00 0.00 0.00 53 1013.2
20260508002053 59 360 1.0 10.0 0.00 0.00 0.00 59 1013.1
20260508001534 59 360 4.0 10.0 0.00 0.00 0.00 56 1013.0
20260508001117 58 360 4.0 10.0 0.00 0.00 0.00 58 1013.1
20260508000534 59 360 1.0 10.0 0.00 0.00 0.00 60 1013.5
20260508000055 59 360 7.0 14.0 0.00 0.00 0.00 57 1013.6
20260507235556 59 360 8.0 14.0 0.00 0.00 0.00 54 1013.8
20260507235056 59 360 8.0 14.0 0.00 0.00 0.00 54 1013.7
20260507234535 59 360 7.0 14.0 0.00 0.00 0.00 53 1013.4
20260507234058 59 360 7.0 15.0 0.00 0.00 0.00 53 1013.0
20260507233618 60 360 11.0 15.0 0.00 0.00 0.00 52 1013.0
20260507233037 60 360 6.0 15.0 0.00 0.00 0.00 52 1013.0
20260507232619 60 360 8.0 15.0 0.00 0.00 0.00 51 1013.0
20260507232038 60 360 9.0 22.0 0.00 0.00 0.00 51 1013.0
20260507231559 61 360 14.0 22.0 0.00 0.00 0.00 50 1013.0
20260507231040 62 360 12.0 19.0 0.00 0.00 0.00 49 1013.1
20260507230621 62 360 14.0 19.0 0.00 0.00 0.00 49 1013.0
20260507230100 62 360 6.0 16.0 0.00 0.00 0.00 49 1012.6
20260507225039 62 360 6.0 14.0 0.00 0.00 0.00 50 1012.5
20260507224557 62 360 7.0 16.0 0.00 0.00 0.00 50 1012.5
20260507224119 62 360 7.0 16.0 0.00 0.00 0.00 49 1012.4
20260507223558 62 360 8.0 16.0 0.00 0.00 0.00 49 1012.5
20260507223118 62 360 6.0 17.0 0.00 0.00 0.00 48 1012.4
20260507222619 62 360 12.0 18.0 0.00 0.00 0.00 49 1012.4
20260507222037 62 360 15.0 19.0 0.00 0.00 0.00 48 1012.5
20260507221538 63 360 13.0 19.0 0.00 0.00 0.00 46 1012.4
20260507221041 64 360 12.0 20.0 0.00 0.00 0.00 44 1012.2
20260507220541 65 360 14.0 20.0 0.00 0.00 0.00 43 1012.1
20260507220123 66 360 12.0 18.0 0.00 0.00 0.00 41 1012.0
20260507215602 66 360 12.0 18.0 0.00 0.00 0.00 40 1012.1
20260507215104 66 360 6.0 16.0 0.00 0.00 0.00 39 1012.3
20260507214604 66 360 9.0 16.0 0.00 0.00 0.00 38 1012.3
20260507214026 67 360 3.0 12.0 0.00 0.00 0.00 36 1012.4
20260507213526 67 360 4.0 13.0 0.00 0.00 0.00 37 1012.4
20260507213027 67 360 6.0 11.0 0.00 0.00 0.00 37 1011.5
20260507212549 67 360 4.0 12.0 0.00 0.00 0.00 36 1011.6
20260507212050 66 360 3.0 18.0 0.00 0.00 0.00 37 1011.7
20260507211529 66 360 7.0 18.0 0.00 0.00 0.00 37 1011.8
20260507211052 66 360 5.0 14.0 0.00 0.00 0.00 35 1012.0
20260507210551 66 360 7.0 14.0 0.00 0.00 0.00 36 1012.0
20260507210035 67 360 8.0 14.0 0.00 0.00 0.00 36 1012.0
20260507205613 67 360 0.0 13.0 0.00 0.00 0.00 36 1012.0
20260507205037 67 360 5.0 13.0 0.00 0.00 0.00 36 1011.9
20260507204538 67 360 6.0 13.0 0.00 0.00 0.00 35 1012.0
20260507204039 67 360 3.0 13.0 0.00 0.00 0.00 35 1012.0
20260507203539 66 360 1.0 13.0 0.00 0.00 0.00 36 1012.0
20260507203041 67 360 5.0 13.0 0.00 0.00 0.00 35 1012.0
20260507202540 67 360 5.0 15.0 0.00 0.00 0.00 35 1011.8
20260507202041 67 360 9.0 15.0 0.00 0.00 0.00 37 1011.8
20260507201623 66 360 5.0 15.0 0.00 0.00 0.00 36 1011.7
20260507201124 66 360 6.0 15.0 0.00 0.00 0.00 37 1011.6
20260507200623 66 360 7.0 14.0 0.00 0.00 0.00 37 1011.7
20260507200041 66 360 7.0 13.0 0.00 0.00 0.00 37 1011.7
20260507195623 66 360 6.0 15.0 0.00 0.00 0.00 36 1011.9
20260507195042 66 360 9.0 14.0 0.00 0.00 0.00 36 1011.8
20260507194543 66 360 9.0 14.0 0.00 0.00 0.00 36 1011.9
20260507194045 66 360 8.0 14.0 0.00 0.00 0.00 35 1011.9
20260507193525 66 360 2.0 14.0 0.00 0.00 0.00 35 1012.1
20260507193025 66 360 5.0 14.0 0.00 0.00 0.00 34 1012.2
20260507192547 66 360 7.0 14.0 0.00 0.00 0.00 34 1012.1
20260507192028 67 360 5.0 15.0 0.00 0.00 0.00 34 1012.1
20260507191529 67 360 5.0 15.0 0.00 0.00 0.00 34 1012.2
20260507191031 66 360 3.0 16.0 0.00 0.00 0.00 35 1012.1
20260507190611 66 360 9.0 16.0 0.00 0.00 0.00 35 1012.2
20260507190031 67 360 3.0 13.0 0.00 0.00 0.00 34 1012.3
20260507185531 66 360 7.0 13.0 0.00 0.00 0.00 36 1012.3
20260507185032 67 360 3.0 12.0 0.00 0.00 0.00 35 1012.3
20260507184537 67 360 7.0 11.0 0.00 0.00 0.00 35 1012.2
20260507184039 67 360 4.0 10.0 0.00 0.00 0.00 36 1012.2
20260507183539 66 360 0.0 9.0 0.00 0.00 0.00 36 1012.3
20260507183039 66 360 2.0 9.0 0.00 0.00 0.00 36 1012.5
20260507182540 66 360 1.0 4.0 0.00 0.00 0.00 36 1012.6
20260507182043 66 360 0.0 0.0 0.00 0.00 0.00 35 1012.6
20260507181543 66 360 0.0 0.0 0.00 0.00 0.00 36 1012.7
20260507181025 65 360 0.0 0.0 0.00 0.00 0.00 37 1012.8
20260507180526 65 360 0.0 0.0 0.00 0.00 0.00 37 1013.0
20260507180108 64 360 0.0 4.0 0.00 0.00 0.00 37 1013.1
20260507175526 65 360 0.0 4.0 0.00 0.00 0.00 36 1013.1
20260507175027 65 360 0.0 0.0 0.00 0.00 0.00 37 1013.2
20260507174528 65 360 0.0 0.0 0.00 0.00 0.00 38 1013.1
20260507174030 64 360 0.0 0.0 0.00 0.00 0.00 37 1012.4
20260507173534 64 360 0.0 0.0 0.00 0.00 0.00 37 1012.5
20260507173035 63 360 0.0 4.0 0.00 0.00 0.00 37 1012.7
20260507172536 63 360 0.0 4.0 0.00 0.00 0.00 37 1012.7
20260507172036 63 360 1.0 4.0 0.00 0.00 0.00 37 1012.9
20260507171619 62 360 0.0 7.0 0.00 0.00 0.00 37 1012.9
20260507171038 62 360 1.0 7.0 0.00 0.00 0.00 37 1013.0
20260507170559 62 360 0.0 9.0 0.00 0.00 0.00 37 1013.0
20260507170040 62 360 0.0 9.0 0.00 0.00 0.00 37 1013.1
20260507165541 62 360 1.0 7.0 0.00 0.00 0.00 37 1013.3
20260507165042 61 360 0.0 7.0 0.00 0.00 0.00 38 1013.4
20260507164604 61 360 0.0 7.0 0.00 0.00 0.00 37 1013.6
20260507164025 60 360 0.0 6.0 0.00 0.00 0.00 37 1013.6
20260507163525 61 360 3.0 9.0 0.00 0.00 0.00 37 1013.8
20260507163026 60 360 4.0 11.0 0.00 0.00 0.00 37 1013.9
20260507162026 61 360 0.0 0.0 0.00 0.00 0.00 38 1013.9
20260507161048 60 360 0.0 0.0 0.00 0.00 0.00 38 1013.9
20260507160608 59 360 0.0 0.0 0.00 0.00 0.00 38 1014.0
20260507160028 59 360 0.0 0.0 0.00 0.00 0.00 37 1014.0
20260507155529 59 360 0.0 0.0 0.00 0.00 0.00 38 1014.0
20260507154611 59 360 0.0 0.0 0.00 0.00 0.00 37 1014.0
20260507154052 58 360 0.0 0.0 0.00 0.00 0.00 37 1014.1
20260507153611 58 360 0.0 0.0 0.00 0.00 0.00 37 1014.2
20260507153032 58 360 0.0 0.0 0.00 0.00 0.00 37 1014.2
20260507152553 58 360 0.0 0.0 0.00 0.00 0.00 37 1014.2
20260507152033 57 360 0.0 0.0 0.00 0.00 0.00 37 1014.2
20260507151555 56 360 0.0 0.0 0.00 0.00 0.00 37 1014.3
20260507151056 56 360 0.0 0.0 0.00 0.00 0.00 38 1014.3
20260507150615 56 360 0.0 0.0 0.00 0.01 0.00 37 1014.5
20260507150116 55 360 0.0 0.0 0.00 0.01 0.00 36 1014.5
20260507145536 54 360 0.0 0.0 0.00 0.01 0.00 36 1014.6
20260507145119 54 360 0.0 0.0 0.00 0.01 0.00 34 1014.6
20260507144559 55 360 0.0 0.0 0.00 0.01 0.00 34 1013.9
20260507143538 54 360 0.0 0.0 0.00 0.01 0.00 34 1014.1
20260507142559 54 360 0.0 0.0 0.00 0.01 0.00 34 1014.1
20260507142100 53 360 0.0 0.0 0.00 0.01 0.00 34 1014.3
20260507141601 53 360 0.0 0.0 0.00 0.01 0.00 35 1014.3
20260507141123 52 360 0.0 8.0 0.00 0.01 0.00 35 1014.4
20260507140541 51 360 4.0 8.0 0.00 0.02 0.00 36 1014.6
20260507135037 51 360 1.0 5.0 0.00 0.02 0.00 38 1014.9
20260507134559 51 360 3.0 5.0 0.00 0.02 0.00 40 1014.9
20260507134059 51 360 0.0 1.0 0.00 0.02 0.00 41 1015.0
20260507133558 50 360 0.0 0.0 0.00 0.02 0.00 41 1014.8
20260507133059 50 360 0.0 0.0 0.00 0.02 0.00 41 1014.6
20260507132523 49 360 0.0 0.0 0.00 0.02 0.00 43 1014.5
20260507132025 49 360 0.0 1.0 0.00 0.02 0.00 44 1014.3
20260507131607 49 360 0.0 1.0 0.00 0.02 0.00 44 1014.5
20260507131125 50 360 0.0 1.0 0.00 0.02 0.00 42 1014.8